Time,TemperatureF,DewpointF,PressureIn,WindDirection,WindDirectionDegrees,WindSpeedMPH,WindSpeedGustMPH,Humidity,HourlyPrecipIn,Conditions,Clouds,dailyrainin,SolarRadiationWatts/m^2,SoftwareType,DateUTC
2013-06-26 00:02:00,55.9,54.8,29.79,ENE,63,1.0,1.0,96,0.00,,---,0.00,0.00,VWS V14.01,2013-06-26 07:02:00,
2013-06-26 00:07:00,55.9,54.8,29.79,ENE,63,0.0,1.0,96,0.00,,---,0.00,0.00,VWS V14.01,2013-06-26 07:07:00,
2013-06-26 00:12:00,56.0,54.9,29.79,ENE,63,0.0,0.0,96,0.00,,---,0.00,0.00,VWS V14.01,2013-06-26 07:12:00,
2013-06-26 00:17:00,56.0,54.9,29.79,ENE,63,0.0,0.0,96,0.00,,---,0.00,0.00,VWS V14.01,2013-06-26 07:17:00,
2013-06-26 00:22:00,56.0,54.9,29.79,ENE,63,0.0,0.0,96,0.00,,---,0.00,0.00,VWS V14.01,2013-06-26 07:22:00,
2013-06-26 00:27:00,56.0,54.9,29.79,NE,54,0.0,1.0,96,0.00,,---,0.00,0.00,VWS V14.01,2013-06-26 07:27:00,
2013-06-26 00:32:00,55.9,54.8,29.79,NE,54,0.0,1.0,96,0.00,,---,0.00,0.00,VWS V14.01,2013-06-26 07:32:00,
2013-06-26 00:38:00,55.8,54.7,29.79,NE,54,0.0,0.0,96,0.00,,---,0.00,0.00,VWS V14.01,2013-06-26 07:38:00,
2013-06-26 00:43:00,55.6,54.5,29.79,NE,54,0.0,0.0,96,0.00,,---,0.00,0.00,VWS V14.01,2013-06-26 07:43:00,
2013-06-26 00:48:00,55.4,54.3,29.79,NE,54,0.0,1.0,96,0.00,,---,0.00,0.00,VWS V14.01,2013-06-26 07:48:00,
2013-06-26 00:53:00,55.3,54.2,29.79,NE,54,0.0,0.0,96,0.00,,---,0.00,0.00,VWS V14.01,2013-06-26 07:53:00,
2013-06-26 00:58:00,55.2,54.1,29.79,NE,54,0.0,0.0,96,0.00,,---,0.00,0.00,VWS V14.01,2013-06-26 07:58:00,
2013-06-26 01:03:00,55.1,54.0,29.79,NE,44,0.0,1.0,96,0.00,,---,0.00,0.00,VWS V14.01,2013-06-26 08:03:00,
2013-06-26 01:08:00,55.1,54.0,29.78,NE,44,0.0,1.0,96,0.00,,---,0.00,0.00,VWS V14.01,2013-06-26 08:08:00,
2013-06-26 01:13:00,55.1,54.0,29.78,NE,44,0.0,1.0,96,0.00,,---,0.00,0.00,VWS V14.01,2013-06-26 08:13:00,
2013-06-26 01:18:00,55.2,54.1,29.78,NE,44,0.0,0.0,96,0.00,,---,0.00,0.00,VWS V14.01,2013-06-26 08:18:00,
2013-06-26 01:23:00,55.1,54.0,29.79,NE,44,0.0,0.0,96,0.00,,---,0.00,0.00,VWS V14.01,2013-06-26 08:23:00,
2013-06-26 01:28:00,55.1,54.0,29.78,NE,44,0.0,0.0,96,0.00,,---,0.00,0.00,VWS V14.01,2013-06-26 08:28:00,
2013-06-26 01:33:00,55.2,54.1,29.78,NE,44,0.0,0.0,96,0.00,,---,0.00,0.00,VWS V14.01,2013-06-26 08:33:00,
2013-06-26 01:38:00,55.3,54.2,29.78,NE,44,0.0,0.0,96,0.00,,---,0.00,0.00,VWS V14.01,2013-06-26 08:38:00,
2013-06-26 01:43:00,55.3,54.2,29.78,NE,44,0.0,0.0,96,0.00,,---,0.00,0.00,VWS V14.01,2013-06-26 08:43:00,
2013-06-26 01:48:00,55.4,54.3,29.78,NE,44,0.0,0.0,96,0.00,,---,0.00,0.00,VWS V14.01,2013-06-26 08:48:00,
2013-06-26 01:53:00,55.5,54.4,29.79,NE,44,0.0,0.0,96,0.00,,---,0.00,0.00,VWS V14.01,2013-06-26 08:53:00,
2013-06-26 01:58:00,55.5,54.4,29.79,NE,44,0.0,0.0,96,0.00,,---,0.00,0.00,VWS V14.01,2013-06-26 08:58:00,
2013-06-26 02:03:00,55.5,54.7,29.79,NE,44,0.0,0.0,97,0.00,,---,0.00,0.00,VWS V14.01,2013-06-26 09:03:00,
2013-06-26 02:08:00,55.5,54.7,29.78,NE,44,0.0,0.0,97,0.00,,---,0.00,0.00,VWS V14.01,2013-06-26 09:08:00,
2013-06-26 02:13:00,55.6,54.8,29.79,NE,44,0.0,0.0,97,0.00,,---,0.00,0.00,VWS V14.01,2013-06-26 09:13:00,
2013-06-26 02:18:00,55.6,54.8,29.78,NE,44,0.0,0.0,97,0.00,,---,0.00,0.00,VWS V14.01,2013-06-26 09:18:00,
2013-06-26 02:23:00,55.6,54.8,29.78,NE,44,0.0,0.0,97,0.00,,---,0.00,0.00,VWS V14.01,2013-06-26 09:23:00,
2013-06-26 02:28:00,55.6,54.8,29.79,NE,44,0.0,0.0,97,0.00,,---,0.00,0.00,VWS V14.01,2013-06-26 09:28:00,
2013-06-26 02:33:00,55.7,54.9,29.79,NE,44,0.0,0.0,97,0.00,,---,0.00,0.00,VWS V14.01,2013-06-26 09:33:00,
2013-06-26 02:38:00,55.7,54.9,29.79,NE,44,0.0,0.0,97,0.00,,---,0.00,0.00,VWS V14.01,2013-06-26 09:38:00,
2013-06-26 02:43:00,55.7,54.9,29.79,NE,44,0.0,0.0,97,0.00,,---,0.00,0.00,VWS V14.01,2013-06-26 09:43:00,
2013-06-26 02:48:00,55.7,54.9,29.79,NE,44,0.0,0.0,97,0.00,,---,0.00,0.00,VWS V14.01,2013-06-26 09:48:00,
2013-06-26 02:53:00,55.7,54.9,29.79,NE,44,0.0,0.0,97,0.00,,---,0.00,0.00,VWS V14.01,2013-06-26 09:53:00,
2013-06-26 02:58:00,55.7,54.9,29.79,NE,44,0.0,0.0,97,0.00,,---,0.00,0.00,VWS V14.01,2013-06-26 09:58:00,
2013-06-26 03:03:00,55.8,55.0,29.79,NE,44,0.0,0.0,97,0.00,,---,0.00,0.00,VWS V14.01,2013-06-26 10:03:00,
2013-06-26 03:08:00,55.7,54.9,29.79,NE,44,0.0,0.0,97,0.00,,---,0.00,0.00,VWS V14.01,2013-06-26 10:08:00,
2013-06-26 03:13:00,55.7,54.9,29.79,NE,44,0.0,0.0,97,0.00,,---,0.00,0.00,VWS V14.01,2013-06-26 10:13:00,
2013-06-26 03:18:00,55.7,54.9,29.80,NE,44,0.0,0.0,97,0.00,,---,0.00,0.00,VWS V14.01,2013-06-26 10:18:00,
2013-06-26 03:23:00,55.6,54.8,29.80,NE,44,0.0,0.0,97,0.01,,---,0.01,0.00,VWS V14.01,2013-06-26 10:23:00,
2013-06-26 03:28:00,55.6,54.8,29.80,NE,44,0.0,0.0,97,0.01,,---,0.01,0.00,VWS V14.01,2013-06-26 10:28:00,
2013-06-26 03:34:00,55.5,54.7,29.80,NE,44,0.0,0.0,97,0.01,,---,0.01,0.00,VWS V14.01,2013-06-26 10:34:00,
2013-06-26 03:39:00,55.5,54.7,29.80,NE,44,0.0,0.0,97,0.01,,---,0.01,0.00,VWS V14.01,2013-06-26 10:39:00,
2013-06-26 03:44:00,55.5,54.7,29.80,NE,44,0.0,0.0,97,0.01,,---,0.01,0.00,VWS V14.01,2013-06-26 10:44:00,
2013-06-26 03:49:00,55.4,54.6,29.80,NE,44,0.0,0.0,97,0.01,,---,0.01,0.00,VWS V14.01,2013-06-26 10:49:00,
2013-06-26 03:54:00,55.4,54.6,29.80,NE,44,0.0,0.0,97,0.01,,---,0.01,0.00,VWS V14.01,2013-06-26 10:54:00,
2013-06-26 03:59:00,55.5,54.7,29.80,NE,44,0.0,0.0,97,0.01,,---,0.01,0.00,VWS V14.01,2013-06-26 10:59:00,
2013-06-26 04:04:00,55.5,54.7,29.80,NE,44,0.0,0.0,97,0.01,,---,0.01,0.00,VWS V14.01,2013-06-26 11:04:00,
2013-06-26 04:09:00,55.6,54.8,29.80,NE,44,0.0,0.0,97,0.01,,---,0.01,0.00,VWS V14.01,2013-06-26 11:09:00,
2013-06-26 04:14:00,55.6,54.8,29.80,NE,44,0.0,0.0,97,0.01,,---,0.01,0.00,VWS V14.01,2013-06-26 11:14:00,
2013-06-26 04:19:00,55.5,54.7,29.80,NE,44,0.0,0.0,97,0.01,,---,0.01,0.00,VWS V14.01,2013-06-26 11:19:00,
2013-06-26 04:24:00,55.5,54.7,29.80,NE,44,0.0,1.0,97,0.00,,---,0.01,0.00,VWS V14.01,2013-06-26 11:24:00,
2013-06-26 04:29:00,55.4,54.6,29.80,NE,44,0.0,0.0,97,0.00,,---,0.01,0.00,VWS V14.01,2013-06-26 11:29:00,
2013-06-26 04:34:00,55.4,54.6,29.80,NE,44,0.0,1.0,97,0.00,,---,0.01,0.00,VWS V14.01,2013-06-26 11:34:00,
2013-06-26 04:39:00,55.3,54.5,29.80,NE,44,0.0,2.0,97,0.00,,---,0.01,0.00,VWS V14.01,2013-06-26 11:39:00,
2013-06-26 04:44:00,55.3,54.5,29.80,NE,44,0.0,2.0,97,0.00,,---,0.01,0.00,VWS V14.01,2013-06-26 11:44:00,
2013-06-26 04:49:00,55.3,54.5,29.80,NE,44,0.0,0.0,97,0.00,,---,0.01,0.00,VWS V14.01,2013-06-26 11:49:00,
2013-06-26 04:54:00,55.3,54.5,29.80,NE,37,0.0,1.0,97,0.00,,---,0.01,0.00,VWS V14.01,2013-06-26 11:54:00,
2013-06-26 04:59:00,55.3,54.5,29.80,NE,37,0.0,0.0,97,0.00,,---,0.01,0.00,VWS V14.01,2013-06-26 11:59:00,
2013-06-26 05:04:00,55.3,54.5,29.80,NE,41,0.0,2.0,97,0.00,,---,0.01,0.00,VWS V14.01,2013-06-26 12:04:00,
2013-06-26 05:09:00,55.2,54.4,29.80,NNE,27,0.0,2.0,97,0.00,,---,0.01,0.00,VWS V14.01,2013-06-26 12:09:00,
2013-06-26 05:14:00,55.2,54.4,29.80,NNE,27,0.0,1.0,97,0.00,,---,0.01,0.00,VWS V14.01,2013-06-26 12:14:00,
2013-06-26 05:19:00,55.2,54.4,29.80,NNE,27,0.0,0.0,97,0.00,,---,0.01,0.00,VWS V14.01,2013-06-26 12:19:00,
2013-06-26 05:24:00,55.1,54.3,29.80,NNE,28,0.0,1.0,97,0.00,,---,0.01,0.00,VWS V14.01,2013-06-26 12:24:00,
2013-06-26 05:29:00,55.0,54.2,29.80,NE,43,0.0,2.0,97,0.00,,---,0.01,0.00,VWS V14.01,2013-06-26 12:29:00,
2013-06-26 05:34:00,55.0,54.2,29.80,NE,43,0.0,1.0,97,0.00,,---,0.01,0.00,VWS V14.01,2013-06-26 12:34:00,
2013-06-26 05:39:00,55.0,54.2,29.80,NE,43,0.0,0.0,97,0.00,,---,0.01,0.00,VWS V14.01,2013-06-26 12:39:00,
2013-06-26 05:44:00,55.0,54.2,29.80,NE,43,0.0,0.0,97,0.00,,---,0.01,0.00,VWS V14.01,2013-06-26 12:44:00,
2013-06-26 05:49:00,55.0,54.2,29.80,NE,48,0.0,1.0,97,0.00,,---,0.01,0.00,VWS V14.01,2013-06-26 12:49:00,
2013-06-26 05:54:00,55.0,54.2,29.80,NNE,26,0.0,2.0,97,0.00,,---,0.01,0.00,VWS V14.01,2013-06-26 12:54:00,
2013-06-26 05:59:00,55.0,54.2,29.81,NNE,26,0.0,2.0,97,0.00,,---,0.01,5.00,VWS V14.01,2013-06-26 12:59:00,
2013-06-26 06:04:00,55.0,54.2,29.81,NNE,26,0.0,0.0,97,0.00,,---,0.01,7.00,VWS V14.01,2013-06-26 13:04:00,
2013-06-26 06:09:00,55.0,54.2,29.81,NNE,26,0.0,0.0,97,0.00,,---,0.01,11.00,VWS V14.01,2013-06-26 13:09:00,
2013-06-26 06:14:00,55.0,54.2,29.81,NNE,25,0.0,3.0,97,0.00,,---,0.01,12.00,VWS V14.01,2013-06-26 13:14:00,
2013-06-26 06:19:00,55.1,54.3,29.81,NNE,25,0.0,0.0,97,0.00,,---,0.01,19.00,VWS V14.01,2013-06-26 13:19:00,
2013-06-26 06:24:00,55.1,54.3,29.81,NNE,25,0.0,1.0,97,0.00,,---,0.01,16.00,VWS V14.01,2013-06-26 13:24:00,
2013-06-26 06:30:00,55.2,54.4,29.81,NNE,25,0.0,0.0,97,0.00,,---,0.01,18.00,VWS V14.01,2013-06-26 13:30:00,
2013-06-26 06:35:00,55.2,54.4,29.81,NNE,25,0.0,1.0,97,0.00,,---,0.01,16.00,VWS V14.01,2013-06-26 13:35:00,
2013-06-26 06:40:00,55.2,54.4,29.81,NNE,25,0.0,1.0,97,0.00,,---,0.01,14.00,VWS V14.01,2013-06-26 13:40:00,
2013-06-26 06:45:00,55.3,54.5,29.82,NNE,25,0.0,0.0,97,0.00,,---,0.01,39.00,VWS V14.01,2013-06-26 13:45:00,
2013-06-26 06:50:00,55.4,54.6,29.81,NNE,25,0.0,0.0,97,0.00,,---,0.01,79.00,VWS V14.01,2013-06-26 13:50:00,
2013-06-26 06:55:00,55.5,54.7,29.81,NNE,25,0.0,0.0,97,0.00,,---,0.01,37.00,VWS V14.01,2013-06-26 13:55:00,
2013-06-26 07:00:00,55.7,54.9,29.82,NNE,25,0.0,0.0,97,0.00,,---,0.01,42.00,VWS V14.01,2013-06-26 14:00:00,
2013-06-26 07:05:00,55.9,55.1,29.82,NNE,25,0.0,0.0,97,0.00,,---,0.01,69.00,VWS V14.01,2013-06-26 14:05:00,
2013-06-26 07:10:00,56.0,55.2,29.82,NNE,25,0.0,0.0,97,0.00,,---,0.01,77.00,VWS V14.01,2013-06-26 14:10:00,
2013-06-26 07:15:00,56.1,55.3,29.82,NNE,25,1.0,1.0,97,0.00,,---,0.01,54.00,VWS V14.01,2013-06-26 14:15:00,
2013-06-26 07:20:00,56.1,55.3,29.82,NNE,25,0.0,2.0,97,0.00,,---,0.01,81.00,VWS V14.01,2013-06-26 14:20:00,
2013-06-26 07:25:00,56.2,55.4,29.82,NNE,25,0.0,0.0,97,0.00,,---,0.01,86.00,VWS V14.01,2013-06-26 14:25:00,
2013-06-26 07:30:00,56.3,55.5,29.82,NNE,25,0.0,0.0,97,0.00,,---,0.01,72.00,VWS V14.01,2013-06-26 14:30:00,
2013-06-26 07:35:00,56.4,55.6,29.82,NNE,25,0.0,2.0,97,0.00,,---,0.01,74.00,VWS V14.01,2013-06-26 14:35:00,
2013-06-26 07:40:00,56.6,55.8,29.82,NNE,25,0.0,1.0,97,0.00,,---,0.01,81.00,VWS V14.01,2013-06-26 14:40:00,
2013-06-26 07:45:00,56.8,56.0,29.82,NNE,26,0.0,2.0,97,0.00,,---,0.01,60.00,VWS V14.01,2013-06-26 14:45:00,
2013-06-26 07:50:00,56.8,56.0,29.82,NNE,26,0.0,2.0,97,0.00,,---,0.01,51.00,VWS V14.01,2013-06-26 14:50:00,
2013-06-26 07:55:00,56.9,56.1,29.82,NNE,26,0.0,0.0,97,0.00,,---,0.01,58.00,VWS V14.01,2013-06-26 14:55:00,
2013-06-26 08:00:00,57.0,56.2,29.83,NNE,26,0.0,0.0,97,0.00,,---,0.01,26.00,VWS V14.01,2013-06-26 15:00:00,
2013-06-26 08:05:00,56.9,55.8,29.83,NNE,26,0.0,0.0,96,0.00,,---,0.01,42.00,VWS V14.01,2013-06-26 15:05:00,
2013-06-26 08:10:00,56.9,55.8,29.83,NNE,26,0.0,0.0,96,0.00,,---,0.01,40.00,VWS V14.01,2013-06-26 15:10:00,
2013-06-26 08:15:00,57.0,55.9,29.84,NNW,336,0.0,2.0,96,0.00,,---,0.01,40.00,VWS V14.01,2013-06-26 15:15:00,
2013-06-26 08:20:00,57.0,55.9,29.84,NNW,336,0.0,1.0,96,0.00,,---,0.01,60.00,VWS V14.01,2013-06-26 15:20:00,
2013-06-26 08:25:00,57.2,56.1,29.84,NNW,336,0.0,2.0,96,0.00,,---,0.01,77.00,VWS V14.01,2013-06-26 15:25:00,
2013-06-26 08:30:00,57.5,56.7,29.84,NNW,336,0.0,2.0,97,0.00,,---,0.01,60.00,VWS V14.01,2013-06-26 15:30:00,
2013-06-26 08:35:00,57.7,56.9,29.84,NNW,336,0.0,2.0,97,0.00,,---,0.01,35.00,VWS V14.01,2013-06-26 15:35:00,
2013-06-26 08:40:00,57.7,56.6,29.85,NNW,336,0.0,2.0,96,0.01,,---,0.02,63.00,VWS V14.01,2013-06-26 15:40:00,
2013-06-26 08:45:00,57.8,56.7,29.84,NNW,336,0.0,0.0,96,0.01,,---,0.02,123.00,VWS V14.01,2013-06-26 15:45:00,
2013-06-26 08:50:00,58.1,57.3,29.84,NNW,336,0.0,0.0,97,0.01,,---,0.02,105.00,VWS V14.01,2013-06-26 15:50:00,
2013-06-26 08:55:00,58.5,57.7,29.85,NNW,336,0.0,0.0,97,0.01,,---,0.02,135.00,VWS V14.01,2013-06-26 15:55:00,
2013-06-26 09:00:00,58.6,57.5,29.85,NNW,336,0.0,1.0,96,0.01,,---,0.02,107.00,VWS V14.01,2013-06-26 16:00:00,
2013-06-26 09:05:00,58.9,57.8,29.85,NNW,336,0.0,0.0,96,0.01,,---,0.02,120.00,VWS V14.01,2013-06-26 16:05:00,
2013-06-26 09:10:00,59.0,58.2,29.85,NNW,336,0.0,0.0,97,0.01,,---,0.02,93.00,VWS V14.01,2013-06-26 16:10:00,
2013-06-26 09:15:00,59.3,58.5,29.85,NNW,336,0.0,0.0,97,0.01,,---,0.02,81.00,VWS V14.01,2013-06-26 16:15:00,
2013-06-26 09:20:00,59.3,58.2,29.85,NNW,336,0.0,0.0,96,0.01,,---,0.02,72.00,VWS V14.01,2013-06-26 16:20:00,
2013-06-26 09:25:00,59.3,58.2,29.85,NNW,336,0.0,0.0,96,0.01,,---,0.02,130.00,VWS V14.01,2013-06-26 16:25:00,
2013-06-26 09:30:00,59.5,58.4,29.85,NNW,336,0.0,0.0,96,0.01,,---,0.02,76.00,VWS V14.01,2013-06-26 16:30:00,
2013-06-26 09:35:00,59.6,58.5,29.85,NNW,336,0.0,0.0,96,0.01,,---,0.02,134.00,VWS V14.01,2013-06-26 16:35:00,
2013-06-26 09:40:00,59.7,58.3,29.86,NNW,336,0.0,0.0,95,0.00,,---,0.02,118.00,VWS V14.01,2013-06-26 16:40:00,
2013-06-26 09:45:00,59.8,58.7,29.86,NNW,336,0.0,0.0,96,0.00,,---,0.02,211.00,VWS V14.01,2013-06-26 16:45:00,
2013-06-26 09:50:00,60.1,59.0,29.86,NNW,336,0.0,0.0,96,0.00,,---,0.02,123.00,VWS V14.01,2013-06-26 16:50:00,
2013-06-26 09:55:00,60.4,59.0,29.86,NNW,336,0.0,0.0,95,0.00,,---,0.02,262.00,VWS V14.01,2013-06-26 16:55:00,
2013-06-26 10:01:00,60.9,59.5,29.86,NNW,336,0.0,0.0,95,0.00,,---,0.02,352.00,VWS V14.01,2013-06-26 17:01:00,
2013-06-26 10:06:00,61.2,59.8,29.86,NNW,336,0.0,1.0,95,0.00,,---,0.02,218.00,VWS V14.01,2013-06-26 17:06:00,
2013-06-26 10:11:00,61.9,60.5,29.86,NNW,336,0.0,1.0,95,0.00,,---,0.02,357.00,VWS V14.01,2013-06-26 17:11:00,
2013-06-26 10:16:00,62.5,60.8,29.86,North,355,0.0,1.0,94,0.00,,---,0.02,362.00,VWS V14.01,2013-06-26 17:16:00,
2013-06-26 10:21:00,62.9,60.5,29.86,North,355,0.0,1.0,92,0.00,,---,0.02,255.00,VWS V14.01,2013-06-26 17:21:00,
2013-06-26 10:26:00,63.5,61.4,29.86,North,355,0.0,0.0,93,0.00,,---,0.02,359.00,VWS V14.01,2013-06-26 17:26:00,
2013-06-26 10:31:00,64.1,61.4,29.86,North,355,0.0,1.0,91,0.00,,---,0.02,369.00,VWS V14.01,2013-06-26 17:31:00,
2013-06-26 10:36:00,64.7,61.4,29.85,North,355,0.0,1.0,89,0.00,,---,0.02,420.00,VWS V14.01,2013-06-26 17:36:00,
2013-06-26 10:41:00,65.1,61.5,29.86,North,355,0.0,0.0,88,0.00,,---,0.02,408.00,VWS V14.01,2013-06-26 17:41:00,
2013-06-26 10:46:00,65.6,61.6,29.86,North,355,0.0,0.0,87,0.00,,---,0.02,297.00,VWS V14.01,2013-06-26 17:46:00,
2013-06-26 10:51:00,65.7,60.1,29.86,SW,224,1.0,2.0,82,0.00,,---,0.02,281.00,VWS V14.01,2013-06-26 17:51:00,
2013-06-26 10:56:00,65.7,61.4,29.86,SW,224,0.0,2.0,86,0.00,,---,0.02,448.00,VWS V14.01,2013-06-26 17:56:00,
2013-06-26 11:01:00,66.0,60.7,29.86,SW,224,0.0,0.0,83,0.00,,---,0.02,376.00,VWS V14.01,2013-06-26 18:01:00,
2013-06-26 11:06:00,66.5,61.2,29.86,SW,221,0.0,0.0,83,0.00,,---,0.02,1030.00,VWS V14.01,2013-06-26 18:06:00,
2013-06-26 11:11:00,67.4,62.1,29.87,East,85,0.0,2.0,83,0.00,,---,0.02,424.00,VWS V14.01,2013-06-26 18:11:00,
2013-06-26 11:16:00,68.0,61.6,29.87,East,86,0.0,2.0,80,0.00,,---,0.02,223.00,VWS V14.01,2013-06-26 18:16:00,
2013-06-26 11:21:00,68.6,63.6,29.87,SW,219,1.0,3.0,84,0.00,,---,0.02,232.00,VWS V14.01,2013-06-26 18:21:00,
2013-06-26 11:26:00,68.7,61.6,29.87,SSW,200,1.0,3.0,78,0.00,,---,0.02,497.00,VWS V14.01,2013-06-26 18:26:00,
2013-06-26 11:31:00,68.9,62.5,29.88,SSW,198,0.0,3.0,80,0.00,,---,0.02,401.00,VWS V14.01,2013-06-26 18:31:00,
2013-06-26 11:36:00,69.1,60.8,29.88,SSE,156,4.0,4.0,75,0.00,,---,0.02,636.00,VWS V14.01,2013-06-26 18:36:00,
2013-06-26 11:41:00,68.8,60.2,29.87,SE,141,0.0,6.0,74,0.00,,---,0.02,969.00,VWS V14.01,2013-06-26 18:41:00,
2013-06-26 11:46:00,69.3,61.8,29.88,WSW,248,3.0,4.0,77,0.00,,---,0.02,487.00,VWS V14.01,2013-06-26 18:46:00,
2013-06-26 11:51:00,69.4,58.4,29.87,East,89,2.0,8.0,68,0.00,,---,0.02,429.00,VWS V14.01,2013-06-26 18:51:00,
2013-06-26 11:56:00,69.2,60.2,29.88,ESE,109,0.0,8.0,73,0.00,,---,0.02,251.00,VWS V14.01,2013-06-26 18:56:00,
2013-06-26 12:01:00,69.1,58.9,29.88,WSW,254,2.0,4.0,70,0.00,,---,0.02,485.00,VWS V14.01,2013-06-26 19:01:00,
2013-06-26 12:06:00,69.0,59.2,29.88,SSE,155,1.0,4.0,71,0.00,,---,0.02,309.00,VWS V14.01,2013-06-26 19:06:00,
2013-06-26 12:11:00,69.0,58.4,29.88,East,94,0.0,5.0,69,0.00,,---,0.02,288.00,VWS V14.01,2013-06-26 19:11:00,
2013-06-26 12:16:00,68.9,60.3,29.87,NW,315,2.0,3.0,74,0.00,,---,0.02,320.00,VWS V14.01,2013-06-26 19:16:00,
2013-06-26 12:21:00,69.0,60.0,29.87,NW,321,2.0,2.0,73,0.00,,---,0.02,367.00,VWS V14.01,2013-06-26 19:21:00,
2013-06-26 12:26:00,69.2,61.0,29.87,South,181,3.0,6.0,75,0.00,,---,0.02,264.00,VWS V14.01,2013-06-26 19:26:00,
2013-06-26 12:31:00,69.2,59.8,29.87,West,259,0.0,6.0,72,0.00,,---,0.02,849.00,VWS V14.01,2013-06-26 19:31:00,
2013-06-26 12:36:00,69.7,60.7,29.87,SSE,163,0.0,4.0,73,0.00,,---,0.02,207.00,VWS V14.01,2013-06-26 19:36:00,
2013-06-26 12:41:00,69.6,60.2,29.88,SE,144,0.0,4.0,72,0.00,,---,0.02,232.00,VWS V14.01,2013-06-26 19:41:00,
2013-06-26 12:46:00,69.1,58.5,29.87,WNW,302,0.0,4.0,69,0.00,,---,0.02,149.00,VWS V14.01,2013-06-26 19:46:00,
2013-06-26 12:51:00,68.9,60.7,29.89,West,271,1.0,5.0,75,0.00,,---,0.02,69.00,VWS V14.01,2013-06-26 19:51:00,
2013-06-26 12:56:00,68.1,59.9,29.90,South,190,2.0,11.0,75,0.00,,---,0.02,151.00,VWS V14.01,2013-06-26 19:56:00,
2013-06-26 13:01:00,67.2,60.1,29.90,WNW,296,2.0,11.0,78,0.00,,---,0.02,223.00,VWS V14.01,2013-06-26 20:01:00,
2013-06-26 13:06:00,66.7,60.3,29.90,NW,310,2.0,8.0,80,0.00,,---,0.02,192.00,VWS V14.01,2013-06-26 20:06:00,
2013-06-26 13:11:00,66.5,61.2,29.90,West,269,0.0,7.0,83,0.00,,---,0.02,512.00,VWS V14.01,2013-06-26 20:11:00,
2013-06-26 13:16:00,67.1,61.1,29.90,WNW,292,2.0,5.0,81,0.00,,---,0.02,701.00,VWS V14.01,2013-06-26 20:16:00,
2013-06-26 13:21:00,67.8,62.5,29.90,WNW,300,2.0,4.0,83,0.00,,---,0.02,670.00,VWS V14.01,2013-06-26 20:21:00,
2013-06-26 13:26:00,69.0,63.6,29.90,West,281,2.0,5.0,83,0.00,,---,0.02,840.00,VWS V14.01,2013-06-26 20:26:00,
2013-06-26 13:31:00,70.3,62.8,29.90,SW,219,2.0,5.0,77,0.00,,---,0.02,557.00,VWS V14.01,2013-06-26 20:31:00,
2013-06-26 13:36:00,71.3,62.2,29.90,West,259,2.0,7.0,73,0.00,,---,0.02,276.00,VWS V14.01,2013-06-26 20:36:00,
2013-06-26 13:41:00,71.9,61.6,29.90,SW,219,1.0,8.0,70,0.00,,---,0.02,251.00,VWS V14.01,2013-06-26 20:41:00,
2013-06-26 13:46:00,71.8,61.1,29.90,South,187,2.0,5.0,69,0.00,,---,0.02,520.00,VWS V14.01,2013-06-26 20:46:00,
2013-06-26 13:52:00,71.7,62.2,29.91,WNW,296,3.0,7.0,72,0.00,,---,0.02,288.00,VWS V14.01,2013-06-26 20:52:00,
2013-06-26 13:57:00,71.9,61.2,29.90,WNW,302,3.0,5.0,69,0.00,,---,0.02,812.00,VWS V14.01,2013-06-26 20:57:00,
2013-06-26 14:02:00,72.1,62.2,29.90,WNW,290,1.0,6.0,71,0.00,,---,0.02,281.00,VWS V14.01,2013-06-26 21:02:00,
2013-06-26 14:07:00,72.5,62.6,29.90,SSW,201,0.0,8.0,71,0.00,,---,0.02,1111.00,VWS V14.01,2013-06-26 21:07:00,
2013-06-26 14:12:00,72.7,62.0,29.91,SW,216,0.0,8.0,69,0.00,,---,0.02,65.00,VWS V14.01,2013-06-26 21:12:00,
2013-06-26 14:17:00,72.3,61.6,29.91,West,275,0.0,4.0,69,0.00,,---,0.02,167.00,VWS V14.01,2013-06-26 21:17:00,
2013-06-26 14:22:00,71.5,61.6,29.90,SW,224,0.0,4.0,71,0.00,,---,0.02,246.00,VWS V14.01,2013-06-26 21:22:00,
2013-06-26 14:27:00,70.9,60.2,29.90,South,173,0.0,5.0,69,0.00,,---,0.02,265.00,VWS V14.01,2013-06-26 21:27:00,
2013-06-26 14:32:00,70.5,61.0,29.91,West,263,0.0,5.0,72,0.00,,---,0.02,181.00,VWS V14.01,2013-06-26 21:32:00,
2013-06-26 14:37:00,70.4,60.6,29.91,West,263,3.0,5.0,71,0.00,,---,0.02,127.00,VWS V14.01,2013-06-26 21:37:00,
2013-06-26 14:42:00,70.4,60.6,29.91,SSW,202,3.0,5.0,71,0.00,,---,0.02,84.00,VWS V14.01,2013-06-26 21:42:00,
2013-06-26 14:47:00,70.1,61.0,29.91,WNW,301,5.0,5.0,73,0.00,,---,0.02,193.00,VWS V14.01,2013-06-26 21:47:00,
2013-06-26 14:52:00,70.3,61.6,29.92,NW,312,1.0,6.0,74,0.00,,---,0.02,290.00,VWS V14.01,2013-06-26 21:52:00,
2013-06-26 14:57:00,70.6,60.8,29.91,WNW,296,2.0,6.0,71,0.00,,---,0.02,239.00,VWS V14.01,2013-06-26 21:57:00,
2013-06-26 15:02:00,71.0,61.5,29.91,NE,53,1.0,6.0,72,0.00,,---,0.02,874.00,VWS V14.01,2013-06-26 22:02:00,
2013-06-26 15:07:00,71.9,61.2,29.91,SW,220,3.0,5.0,69,0.00,,---,0.02,909.00,VWS V14.01,2013-06-26 22:07:00,
2013-06-26 15:12:00,72.6,60.6,29.91,West,275,4.0,6.0,66,0.00,,---,0.02,290.00,VWS V14.01,2013-06-26 22:12:00,
2013-06-26 15:17:00,72.6,60.2,29.91,ESE,122,2.0,9.0,65,0.00,,---,0.02,230.00,VWS V14.01,2013-06-26 22:17:00,
2013-06-26 15:22:00,72.1,61.0,29.91,NW,306,5.0,9.0,68,0.00,,---,0.02,265.00,VWS V14.01,2013-06-26 22:22:00,
2013-06-26 15:27:00,71.8,60.3,29.92,WSW,240,0.0,7.0,67,0.00,,---,0.02,281.00,VWS V14.01,2013-06-26 22:27:00,
2013-06-26 15:32:00,71.8,61.5,29.92,SW,218,0.0,4.0,70,0.00,,---,0.02,260.00,VWS V14.01,2013-06-26 22:32:00,
2013-06-26 15:37:00,71.8,60.7,29.92,WNW,294,3.0,8.0,68,0.00,,---,0.02,278.00,VWS V14.01,2013-06-26 22:37:00,
2013-06-26 15:42:00,71.7,60.2,29.92,SW,235,3.0,10.0,67,0.00,,---,0.02,172.00,VWS V14.01,2013-06-26 22:42:00,
2013-06-26 15:47:00,71.3,60.2,29.92,WNW,286,2.0,9.0,68,0.00,,---,0.02,116.00,VWS V14.01,2013-06-26 22:47:00,
2013-06-26 15:52:00,70.6,59.1,29.93,WSW,244,4.0,9.0,67,0.00,,---,0.02,46.00,VWS V14.01,2013-06-26 22:52:00,
2013-06-26 15:57:00,69.6,59.8,29.93,West,263,3.0,8.0,71,0.01,,---,0.03,33.00,VWS V14.01,2013-06-26 22:57:00,
2013-06-26 16:02:00,68.4,60.9,29.94,SW,223,2.0,10.0,77,0.04,,---,0.06,46.00,VWS V14.01,2013-06-26 23:02:00,
2013-06-26 16:07:00,67.1,60.7,29.94,WNW,284,2.0,10.0,80,0.05,,---,0.07,54.00,VWS V14.01,2013-06-26 23:07:00,
2013-06-26 16:12:00,65.9,60.6,29.94,West,273,4.0,7.0,83,0.05,,---,0.07,58.00,VWS V14.01,2013-06-26 23:12:00,
2013-06-26 16:17:00,65.0,60.4,29.95,SSE,165,6.0,6.0,85,0.05,,---,0.07,65.00,VWS V14.01,2013-06-26 23:17:00,
2013-06-26 16:22:00,64.2,59.9,29.95,WNW,300,2.0,6.0,86,0.05,,---,0.07,105.00,VWS V14.01,2013-06-26 23:22:00,
2013-06-26 16:27:00,63.9,60.0,29.95,West,281,3.0,6.0,87,0.05,,---,0.07,121.00,VWS V14.01,2013-06-26 23:27:00,
2013-06-26 16:32:00,63.8,60.2,29.94,WSW,238,0.0,4.0,88,0.06,,---,0.08,165.00,VWS V14.01,2013-06-26 23:32:00,
2013-06-26 16:37:00,64.0,61.0,29.94,West,260,2.0,3.0,90,0.06,,---,0.08,350.00,VWS V14.01,2013-06-26 23:37:00,
2013-06-26 16:42:00,64.5,62.1,29.94,West,273,1.0,3.0,92,0.06,,---,0.08,304.00,VWS V14.01,2013-06-26 23:42:00,
2013-06-26 16:47:00,65.1,62.4,29.94,WSW,257,0.0,3.0,91,0.06,,---,0.08,128.00,VWS V14.01,2013-06-26 23:47:00,
2013-06-26 16:52:00,65.2,61.9,29.95,South,184,2.0,4.0,89,0.06,,---,0.08,162.00,VWS V14.01,2013-06-26 23:52:00,
2013-06-26 16:57:00,65.4,62.4,29.95,SSW,194,0.0,4.0,90,0.05,,---,0.08,239.00,VWS V14.01,2013-06-26 23:57:00,
2013-06-26 17:02:00,65.8,63.1,29.95,SSE,150,0.0,2.0,91,0.03,,---,0.08,206.00,VWS V14.01,2013-06-27 00:02:00,
2013-06-26 17:07:00,65.8,61.5,29.95,SW,229,0.0,4.0,86,0.02,,---,0.08,109.00,VWS V14.01,2013-06-27 00:07:00,
2013-06-26 17:12:00,65.6,61.0,29.95,SSW,203,2.0,5.0,85,0.01,,---,0.08,111.00,VWS V14.01,2013-06-27 00:12:00,
2013-06-26 17:17:00,65.2,60.9,29.96,SE,132,0.0,5.0,86,0.01,,---,0.08,135.00,VWS V14.01,2013-06-27 00:17:00,
2013-06-26 17:22:00,65.2,61.6,29.96,WSW,238,2.0,4.0,88,0.01,,---,0.08,151.00,VWS V14.01,2013-06-27 00:22:00,
2013-06-26 17:27:00,65.2,61.2,29.96,WNW,294,0.0,4.0,87,0.01,,---,0.08,125.00,VWS V14.01,2013-06-27 00:27:00,
2013-06-26 17:32:00,65.3,61.0,29.96,WSW,244,2.0,4.0,86,0.00,,---,0.08,116.00,VWS V14.01,2013-06-27 00:32:00,
2013-06-26 17:38:00,65.4,61.1,29.96,West,280,0.0,4.0,86,0.00,,---,0.08,146.00,VWS V14.01,2013-06-27 00:38:00,
2013-06-26 17:43:00,65.5,60.9,29.96,West,280,0.0,3.0,85,0.00,,---,0.08,142.00,VWS V14.01,2013-06-27 00:43:00,
2013-06-26 17:48:00,65.7,61.4,29.96,WNW,292,0.0,2.0,86,0.00,,---,0.08,146.00,VWS V14.01,2013-06-27 00:48:00,
2013-06-26 17:53:00,65.9,60.9,29.96,SSE,164,1.0,2.0,84,0.00,,---,0.08,149.00,VWS V14.01,2013-06-27 00:53:00,
2013-06-26 17:58:00,66.0,60.7,29.96,SW,225,0.0,3.0,83,0.00,,---,0.08,148.00,VWS V14.01,2013-06-27 00:58:00,
2013-06-26 18:03:00,66.2,61.2,29.96,East,90,0.0,3.0,84,0.00,,---,0.08,149.00,VWS V14.01,2013-06-27 01:03:00,
2013-06-26 18:08:00,66.4,62.1,29.96,East,90,0.0,2.0,86,0.00,,---,0.08,169.00,VWS V14.01,2013-06-27 01:08:00,
2013-06-26 18:13:00,66.7,61.7,29.96,South,176,2.0,4.0,84,0.00,,---,0.08,151.00,VWS V14.01,2013-06-27 01:13:00,
2013-06-26 18:18:00,66.7,59.6,29.96,SW,229,2.0,4.0,78,0.00,,---,0.08,139.00,VWS V14.01,2013-06-27 01:18:00,
2013-06-26 18:23:00,66.9,60.5,29.96,SW,229,0.0,2.0,80,0.00,,---,0.08,134.00,VWS V14.01,2013-06-27 01:23:00,
2013-06-26 18:28:00,66.9,60.5,29.96,NW,324,0.0,4.0,80,0.00,,---,0.08,121.00,VWS V14.01,2013-06-27 01:28:00,
2013-06-26 18:33:00,66.8,60.1,29.96,NW,324,0.0,4.0,79,0.00,,---,0.08,84.00,VWS V14.01,2013-06-27 01:33:00,
2013-06-26 18:38:00,66.8,59.4,29.97,West,274,2.0,2.0,77,0.00,,---,0.08,70.00,VWS V14.01,2013-06-27 01:38:00,
2013-06-26 18:43:00,66.6,59.5,29.97,WNW,300,0.0,5.0,78,0.00,,---,0.08,63.00,VWS V14.01,2013-06-27 01:43:00,
2013-06-26 18:48:00,66.4,59.0,29.97,SSE,162,2.0,5.0,77,0.00,,---,0.08,62.00,VWS V14.01,2013-06-27 01:48:00,
2013-06-26 18:53:00,66.1,58.0,29.97,SE,129,0.0,4.0,75,0.00,,---,0.08,49.00,VWS V14.01,2013-06-27 01:53:00,
2013-06-26 18:58:00,65.9,57.4,29.97,SE,129,0.0,2.0,74,0.00,,---,0.08,76.00,VWS V14.01,2013-06-27 01:58:00,
2013-06-26 19:03:00,65.8,58.4,29.97,SE,144,0.0,3.0,77,0.00,,---,0.08,79.00,VWS V14.01,2013-06-27 02:03:00,
2013-06-26 19:08:00,65.8,59.1,29.98,SE,145,0.0,2.0,79,0.00,,---,0.08,74.00,VWS V14.01,2013-06-27 02:08:00,
2013-06-26 19:13:00,65.8,60.5,29.98,ESE,121,1.0,2.0,83,0.00,,---,0.08,74.00,VWS V14.01,2013-06-27 02:13:00,
2013-06-26 19:18:00,65.9,60.9,29.98,ESE,121,0.0,2.0,84,0.00,,---,0.08,79.00,VWS V14.01,2013-06-27 02:18:00,
2013-06-26 19:23:00,65.9,60.9,29.98,ESE,121,0.0,0.0,84,0.00,,---,0.08,44.00,VWS V14.01,2013-06-27 02:23:00,
2013-06-26 19:28:00,65.8,60.8,29.98,ESE,121,0.0,0.0,84,0.00,,---,0.08,33.00,VWS V14.01,2013-06-27 02:28:00,
2013-06-26 19:33:00,65.7,60.7,29.98,ESE,121,0.0,0.0,84,0.00,,---,0.08,30.00,VWS V14.01,2013-06-27 02:33:00,
2013-06-26 19:38:00,65.5,60.9,29.98,ESE,121,0.0,0.0,85,0.00,,---,0.08,39.00,VWS V14.01,2013-06-27 02:38:00,
2013-06-26 19:43:00,65.4,61.1,29.98,ESE,121,0.0,0.0,86,0.00,,---,0.08,40.00,VWS V14.01,2013-06-27 02:43:00,
2013-06-26 19:48:00,65.3,61.0,29.98,ESE,121,0.0,0.0,86,0.00,,---,0.08,44.00,VWS V14.01,2013-06-27 02:48:00,
2013-06-26 19:53:00,65.1,61.1,29.98,ESE,121,0.0,0.0,87,0.00,,---,0.08,37.00,VWS V14.01,2013-06-27 02:53:00,
2013-06-26 19:58:00,65.0,61.0,29.98,ESE,121,0.0,0.0,87,0.00,,---,0.08,30.00,VWS V14.01,2013-06-27 02:58:00,
2013-06-26 20:03:00,64.9,60.9,29.98,ESE,121,0.0,0.0,87,0.00,,---,0.08,19.00,VWS V14.01,2013-06-27 03:03:00,
2013-06-26 20:08:00,64.7,60.8,29.98,ESE,121,0.0,0.0,87,0.00,,---,0.08,14.00,VWS V14.01,2013-06-27 03:08:00,
2013-06-26 20:13:00,64.5,60.5,29.98,ESE,121,0.0,0.0,87,0.00,,---,0.08,18.00,VWS V14.01,2013-06-27 03:13:00,
2013-06-26 20:18:00,64.3,60.7,29.98,ESE,121,0.0,0.0,88,0.00,,---,0.08,14.00,VWS V14.01,2013-06-27 03:18:00,
2013-06-26 20:23:00,64.0,60.1,29.98,ESE,121,0.0,0.0,87,0.00,,---,0.08,11.00,VWS V14.01,2013-06-27 03:23:00,
2013-06-26 20:28:00,63.8,60.2,29.98,ESE,121,0.0,0.0,88,0.00,,---,0.08,9.00,VWS V14.01,2013-06-27 03:28:00,
2013-06-26 20:33:00,63.6,60.0,29.98,ESE,121,0.0,0.0,88,0.00,,---,0.08,7.00,VWS V14.01,2013-06-27 03:33:00,
2013-06-26 20:38:00,63.4,59.8,29.98,ESE,121,0.0,0.0,88,0.00,,---,0.08,5.00,VWS V14.01,2013-06-27 03:38:00,
2013-06-26 20:43:00,63.2,59.6,29.98,ESE,121,0.0,0.0,88,0.00,,---,0.08,5.00,VWS V14.01,2013-06-27 03:43:00,
2013-06-26 20:48:00,63.0,59.7,29.98,ESE,121,0.0,0.0,89,0.00,,---,0.08,5.00,VWS V14.01,2013-06-27 03:48:00,
2013-06-26 20:53:00,62.7,59.4,29.98,ESE,121,0.0,0.0,89,0.00,,---,0.08,0.00,VWS V14.01,2013-06-27 03:53:00,
2013-06-26 20:58:00,62.6,59.3,29.98,ESE,121,0.0,0.0,89,0.00,,---,0.08,0.00,VWS V14.01,2013-06-27 03:58:00,
2013-06-26 21:01:00,62.6,59.3,29.99,ESE,121,0.0,0.0,89,0.00,,---,0.08,0.00,VWS V14.01,2013-06-27 04:01:00,
2013-06-26 21:02:00,62.5,59.5,29.98,ESE,121,0.0,0.0,90,0.00,,---,0.08,0.00,VWS V14.01,2013-06-27 04:02:00,
2013-06-26 21:07:00,62.5,59.5,29.99,ESE,121,0.0,0.0,90,0.00,,---,0.08,0.00,VWS V14.01,2013-06-27 04:07:00,
2013-06-26 21:12:00,62.3,59.3,29.99,ESE,121,0.0,0.0,90,0.00,,---,0.08,0.00,VWS V14.01,2013-06-27 04:12:00,
2013-06-26 21:17:00,62.3,59.3,29.99,ESE,121,0.0,0.0,90,0.00,,---,0.08,0.00,VWS V14.01,2013-06-27 04:17:00,
2013-06-26 21:22:00,62.2,59.2,29.99,ESE,121,0.0,0.0,90,0.00,,---,0.08,0.00,VWS V14.01,2013-06-27 04:22:00,
2013-06-26 21:27:00,62.1,59.1,29.99,ESE,121,0.0,0.0,90,0.00,,---,0.08,0.00,VWS V14.01,2013-06-27 04:27:00,
2013-06-26 21:32:00,61.9,58.9,29.99,ESE,121,0.0,0.0,90,0.00,,---,0.08,0.00,VWS V14.01,2013-06-27 04:32:00,
2013-06-26 21:37:00,61.8,58.5,29.99,ESE,121,0.0,0.0,89,0.00,,---,0.08,0.00,VWS V14.01,2013-06-27 04:37:00,
2013-06-26 21:42:00,61.6,58.3,29.99,ESE,121,0.0,0.0,89,0.00,,---,0.08,0.00,VWS V14.01,2013-06-27 04:42:00,
2013-06-26 21:47:00,61.4,58.1,30.00,ESE,121,0.0,1.0,89,0.00,,---,0.08,0.00,VWS V14.01,2013-06-27 04:47:00,
2013-06-26 21:52:00,61.3,58.0,30.00,ESE,121,0.0,1.0,89,0.00,,---,0.08,0.00,VWS V14.01,2013-06-27 04:52:00,
2013-06-26 21:57:00,61.2,58.2,30.00,ESE,121,0.0,0.0,90,0.00,,---,0.08,0.00,VWS V14.01,2013-06-27 04:57:00,
2013-06-26 22:02:00,61.1,58.2,30.00,ESE,121,0.0,0.0,90,0.00,,---,0.08,0.00,VWS V14.01,2013-06-27 05:02:00,
2013-06-26 22:07:00,61.0,58.0,30.00,ESE,121,0.0,0.0,90,0.00,,---,0.08,0.00,VWS V14.01,2013-06-27 05:07:00,
2013-06-26 22:12:00,61.0,58.0,30.00,ESE,121,0.0,0.0,90,0.00,,---,0.08,0.00,VWS V14.01,2013-06-27 05:12:00,
2013-06-26 22:17:00,60.9,58.0,30.00,ESE,121,0.0,0.0,90,0.00,,---,0.08,0.00,VWS V14.01,2013-06-27 05:17:00,
2013-06-26 22:22:00,60.9,58.3,30.00,ESE,121,0.0,0.0,91,0.00,,---,0.08,0.00,VWS V14.01,2013-06-27 05:22:00,
2013-06-26 22:27:00,60.7,58.1,30.00,ESE,121,0.0,0.0,91,0.00,,---,0.08,0.00,VWS V14.01,2013-06-27 05:27:00,
2013-06-26 22:32:00,60.7,58.1,30.00,ESE,121,0.0,0.0,91,0.00,,---,0.08,0.00,VWS V14.01,2013-06-27 05:32:00,
2013-06-26 22:37:00,60.5,57.9,30.00,ESE,121,0.0,0.0,91,0.00,,---,0.08,0.00,VWS V14.01,2013-06-27 05:37:00,
2013-06-26 22:42:00,60.4,57.5,30.00,ESE,121,0.0,0.0,90,0.00,,---,0.08,0.00,VWS V14.01,2013-06-27 05:42:00,
2013-06-26 22:47:00,60.3,57.7,30.00,ESE,121,0.0,0.0,91,0.00,,---,0.08,0.00,VWS V14.01,2013-06-27 05:47:00,
2013-06-26 22:52:00,60.2,57.6,30.01,ESE,121,0.0,0.0,91,0.00,,---,0.08,0.00,VWS V14.01,2013-06-27 05:52:00,
2013-06-26 22:57:00,60.0,57.4,30.00,ESE,121,0.0,0.0,91,0.00,,---,0.08,0.00,VWS V14.01,2013-06-27 05:57:00,
2013-06-26 23:02:00,59.9,57.3,30.00,ESE,121,0.0,0.0,91,0.00,,---,0.08,0.00,VWS V14.01,2013-06-27 06:02:00,
2013-06-26 23:07:00,59.8,57.2,30.01,ESE,121,0.0,0.0,91,0.00,,---,0.08,0.00,VWS V14.01,2013-06-27 06:07:00,
2013-06-26 23:12:00,59.8,57.5,30.01,ESE,121,0.0,0.0,92,0.00,,---,0.08,0.00,VWS V14.01,2013-06-27 06:12:00,
2013-06-26 23:17:00,59.9,57.6,30.01,ESE,121,0.0,0.0,92,0.00,,---,0.08,0.00,VWS V14.01,2013-06-27 06:17:00,
2013-06-26 23:22:00,60.0,58.0,30.01,ESE,121,0.0,0.0,93,0.00,,---,0.08,0.00,VWS V14.01,2013-06-27 06:22:00,
2013-06-26 23:27:00,60.0,58.0,30.00,ESE,121,0.0,0.0,93,0.00,,---,0.08,0.00,VWS V14.01,2013-06-27 06:27:00,
2013-06-26 23:32:00,60.0,58.0,30.00,ESE,121,0.0,0.0,93,0.00,,---,0.08,0.00,VWS V14.01,2013-06-27 06:32:00,
2013-06-26 23:37:00,60.0,58.0,30.00,ESE,121,0.0,0.0,93,0.00,,---,0.08,0.00,VWS V14.01,2013-06-27 06:37:00,
2013-06-26 23:42:00,59.9,57.9,30.01,ESE,121,0.0,0.0,93,0.00,,---,0.08,0.00,VWS V14.01,2013-06-27 06:42:00,
2013-06-26 23:47:00,59.8,57.8,30.01,ESE,121,0.0,0.0,93,0.00,,---,0.08,0.00,VWS V14.01,2013-06-27 06:47:00,
2013-06-26 23:52:00,59.7,57.7,30.01,ESE,121,0.0,0.0,93,0.00,,---,0.08,0.00,VWS V14.01,2013-06-27 06:52:00,
2013-06-26 23:57:00,59.6,57.6,30.01,ESE,121,0.0,0.0,93,0.00,,---,0.08,0.00,VWS V14.01,2013-06-27 06:57:00,